Regional Weather Roundup
Issued by NWS Mt. Holly, NJ

Home | Current Version | Previous Version | Text Only | Print | Product List | Glossary On
Versions: 1 2 3 4 5 6 7 8 9 10 11 12 13 14 15 16 17 18 19 20 21 22 23 24 25 26 27 28 29 30 31 32 33 34 35 36 37 38 39 40 41 42 43 44 45 46 47 48 49 50
000
ASUS41 KPHI 022212
RWRPHI

REGIONAL WEATHER ROUNDUP
NATIONAL WEATHER SERVICE MOUNT HOLLY NJ
600 PM EDT WED SEP 02 2015

NOTE:  "FAIR" INDICATES FEW OR NO CLOUDS BELOW 12,000 FEET WITH NO
SIGNIFICANT WEATHER AND/OR OBSTRUCTIONS TO VISIBILITY.

 * = STATION DOES NOT REPORT PRECIPITATION (E.G. RAIN, SNOW, ETC.)
        OR FOG.

NJZ015>026-022300-
SOUTHERN NEW JERSEY

CITY           SKY/WX    TMP DP  RH WIND       PRES   REMARKS
POMONA         PTSUNNY   82  71  69 S7        29.93F
WILDWOOD*      PTSUNNY   81  72  74 S6        29.94F
MILLVILLE      PTSUNNY   83  69  62 VRB3      29.93S
WRIGHTSTOWN    SUNNY     88  69  53 S6        29.88S HX  92
MOUNT HOLLY    MOSUNNY   86  66  51 SE3       29.90S
TRENTON        MOSUNNY   90  63  40 SW7       29.90S HX  91

$$
NJZ001>014-022300-
NORTHERN NEW JERSEY

CITY           SKY/WX    TMP DP  RH WIND       PRES   REMARKS
SUSSEX         SUNNY     87  64  46 CALM      29.93S
ANDOVER*         N/A     83  70  64 CALM      29.93S
MORRISTOWN     MOSUNNY   90  63  40 N3        29.90S HX  90
NEWARK         PTSUNNY   86  68  54 S9        29.89S
TETERBORO      SUNNY     86  65  49 S9        29.88S
CALDWELL       SUNNY     91  58  32 N5        29.89S HX  90
SOMERVILLE     SUNNY     91  62  37 N7        29.88S HX  91
ALLAIRE*       SUNNY     81  66  61 S12       29.92F
TOMS RIVER*    MOSUNNY   82  68  61 S12       29.92F

$$
PAZ043-044-047-054-055-060>062-066>071-022300-
EASTERN PENNSYLVANIA

CITY           SKY/WX    TMP DP  RH WIND       PRES   REMARKS
PHILADELPHIA   MOSUNNY   92  61  35 SW10      29.91S HX  92
NORTH PHILA    SUNNY     92  59  33 NW3       29.91F HX  91
BLUE BELL      SUNNY     88  64  45 W3        29.91F
DOYLESTOWN     PTSUNNY   83  64  52 CALM      29.91F
QUAKERTOWN*    SUNNY     88  64  45 N3        29.93F
POTTSTOWN      SUNNY     86  64  47 NW7       29.94S
LANCASTER      SUNNY     87  62  43 N6        29.94S
COATESVILLE    SUNNY     86  57  37 NW8       29.96S
READING        SUNNY     88  63  43 W8        29.92S
ALLENTOWN      SUNNY     89  63  41 N6        29.92S HX  90
MOUNT POCONO   SUNNY     80  63  55 NW6       30.01S
HAZLETON       PTSUNNY   81  63  54 N7        30.02F
WILKES BARRE   SUNNY     86  64  47 NW8       29.95F

$$
DEZALL-MDZ008-012-015-019-020-022300-
DELAWARE AND EASTERN MARYLAND

CITY           SKY/WX    TMP DP  RH WIND       PRES   REMARKS
WILMINGTON     SUNNY     90  60  36 W9        29.93S
DOVER          PTSUNNY   85  71  63 SE6       29.91F HX  90
GEORGETOWN     PTSUNNY   87  69  54 SE5       29.93F HX  91
ABERDEEN       MOSUNNY   88  72  58 CALM      29.93S HX  94
PATUXENT       PTSUNNY   84  72  67 CALM      29.93F
OCEAN CITY     PTSUNNY   82  70  66 S3        29.93F
WALLOPS ISLAND CLOUDY    82  71  69 S5        29.94F
CAMBRIDGE      MOSUNNY   86  66  51 W3        29.92F
SALISBURY      PTSUNNY   88  69  53 VRB3      29.92F HX  92

$$
PAZ001-021-NYZ056-072-MDZ011-DCZ001-022300-
OTHER NEARBY LOCATIONS

CITY           SKY/WX    TMP DP  RH WIND       PRES   REMARKS
HARRISBURG     MOSUNNY   89  68  49 W3        29.93S HX  93
STATE COLLEGE  RAIN      82  68  61 W15G23    29.98S
WILLIAMSPORT   SUNNY     89  65  44 CALM      29.92F HX  91
BINGHAMTON     SUNNY     80  65  59 NW5       30.00S
NEW YORK CITY  SUNNY     84  64  50 VRB3      29.93S
BALTIMORE      CLOUDY    88  67  49 W8        29.93S HX  91
WASHINGTON DC  CLOUDY    87  68  52 W9        29.95S HX  90

$$



USA.gov is the U.S. government's official web portal to all federal, state and local government web resources and services.